This demonstration page uses our WeatherBlox Daily Observations layout. Learn more.

Left ArrowRight Arrow

33.98154, -81.23621

Hourly Observations for September 25, 2022

Temp ( °F °C ) Dew Point ( °F °C ) Humidity (%) Winds ( mph kmh ) Pressure ( in mb ) Visibility ( mi km ) Precip ( " mm )
12:56 am 00:56 Mostly Clear 64 17.8 52 11.1 65 65 W 3 6 30.00 1016 10 16 0.00 0.00
1:56 am 01:56 Mostly Clear 62 16.7 54 12.2 75 75 W 3 6 29.98 1015 10 16 0.00 0.00
2:56 am 02:56 Mostly Clear 63 17.2 55 12.8 75 75 WSW 5 7 29.98 1015 10 16 0.00 0.00
3:56 am 03:56 Clear 61 16.1 55 12.8 81 81 W 6 9 29.98 1015 10 16 0.00 0.00
4:56 am 04:56 Clear 62 16.7 55 12.8 78 78 SW 5 7 29.97 1015 10 16 0.00 0.00
5:56 am 05:56 Clear 61 16.1 56 13.3 83 83 WSW 6 9 29.97 1015 10 16 0.00 0.00
6:56 am 06:56 Mostly Cloudy 61 16.1 56 13.3 83 83 W 6 9 29.97 1015 10 16 0.00 0.00
7:56 am 07:56 Mostly Cloudy 63 17.2 57 13.9 81 81 SW 7 11 29.98 1015 10 16 0.00 0.00
8:56 am 08:56 Mostly Cloudy 67 19.4 60 15.6 79 79 SW 8 13 29.98 1015 10 16 0.00 0.00
9:56 am 09:56 Mostly Cloudy 71 21.7 62 16.7 73 73 WSW 9 15 29.97 1015 10 16 0.00 0.00
10:56 am 10:56 Mostly Cloudy 78 25.6 63 17.2 60 60 SW 10 17 29.95 1014 10 16 0.00 0.00
11:56 am 11:56 Partly Cloudy 81 27.2 61 16.1 51 51 SW 12 19 29.93 1014 10 16 0.00 0.00
12:56 pm 12:56 Partly Cloudy 83 28.3 60 15.6 46 46 SW 8 13 29.91 1013 10 16 0.00 0.00
1:56 pm 13:56 Partly Cloudy 86 30 60 15.6 42 42 VRB 7 11 29.88 1012 10 16 0.00 0.00
2:56 pm 14:56 Partly Cloudy 87 30.6 61 16.1 42 42 SW 10 17 29.85 1011 10 16 0.00 0.00
3:56 pm 15:56 Partly Cloudy 88 31.1 62 16.7 42 42 SW 10 17 29.83 1010 10 16 0.00 0.00
4:56 pm 16:56 Mostly Cloudy 86 30 62 16.7 45 45 SW 9 15 29.82 1010 10 16 0.00 0.00
5:56 pm 17:56 Mostly Cloudy 86 30 63 17.2 46 46 WSW 10 17 29.81 1010 10 16 0.00 0.00
6:56 pm 18:56 Mostly Cloudy 83 28.3 62 16.7 49 49 WSW 8 13 29.81 1009 10 16 0.00 0.00
7:56 pm 19:56 Mostly Clear 79 26.1 63 17.2 58 58 SW 5 7 29.81 1010 10 16 0.00 0.00
8:56 pm 20:56 Mostly Clear 77 25 63 17.2 62 62 SW 3 6 29.83 1010 10 16 0.00 0.00
9:56 pm 21:56 Clear 74 23.3 63 17.2 69 69 WSW 5 7 29.85 1011 10 16 0.00 0.00
10:56 pm 22:56 Clear 73 22.8 63 17.2 71 71 SW 3 6 29.86 1011 10 16 0.00 0.00
11:56 pm 23:56 Clear 71 21.7 63 17.2 76 76 SSW 3 6 29.86 1011 10 16 0.00 0.00

Powered by AerisWeather